Weather History for Paganella, Italy

Change the Weather History Date:

Saturday, December 8, 2012

  Actual Average Record
Temperature  
Mean Temperature 10 °F -  
Max Temperature 12 °F 29 °F 39 °F (2004)
Min Temperature 9 °F 20 °F 8 °F (1998)
Degree Days  
Heating Degree Days 54    
Moisture  
Dew Point -1 °F    
Average Humidity 58    
Maximum Humidity 92    
Minimum Humidity 22    
Precipitation  
Precipitation 0.00 in 0.04 in - ()
Sea Level Pressure  
Sea Level Pressure 29.47 in    
Wind  
Wind Speed 28 mph ()    
Max Wind Speed 37 mph    
Max Gust Speed 56 mph    
Visibility 6.2 miles    
Events Snow    
Averages and records for this station are not official NWS values.
T = Trace of Precipitation, MM = Missing Value Source: Averaged Metar Reports

Daily Weather History Graph

Daily Weather History Graph

Search for Another Location

Airport:

Trip Planner

Search our weather history database for the weather conditions in past years. The results will help you decide how hot, cold, wet, or windy it might be!

Date:

Astronomy

Dec. 08, 2012 Rise Set
Actual Time 7:45 AM CET 4:30 PM CET
Civil Twilight 7:11 AM CET 5:04 PM CET
Nautical Twilight 6:33 AM CET 5:42 PM CET
Astronomical Twilight 5:57 AM CET 6:18 PM CET
Moon 1:35 AM CET (12/8) 1:04 PM CET (12/8)
Length of Visible Light 9h 53m
Length of Day
8h 44m
Waning Crescent, 31% of the Moon is Illuminated
Dec 8
Waning Crescent
Dec 13
New
Dec 20
First Quarter
Dec 28
Full
Jan 5
Last Quarter

Hourly Weather History & Observations

Time (CET) Temp. Windchill Dew Point Humidity Pressure Visibility Wind Dir Wind Speed Gust Speed Precip Events Conditions
12:55 AM 10.4 °F -11.0 °F 8.6 °F 92% 29.36 in 6.2 mi North 27.6 mph 40.3 mph N/A Snow Low Drifting Snow
1:00 AM 11 °F - 8 °F 83%  in 6 mi North 27.6 mph - - Snow Low Drifting Snow
1:55 AM 8.6 °F -14.8 °F 6.8 °F 92% 29.33 in 6.2 mi North 32.2 mph - N/A Snow Low Drifting Snow
2:55 AM 10.4 °F -11.7 °F 6.8 °F 85% 29.33 in 6.2 mi North 29.9 mph - N/A Snow Low Drifting Snow
3:55 AM 10.4 °F -11.4 °F 6.8 °F 85% 29.30 in 6.2 mi North 28.8 mph 41.4 mph N/A Snow Low Drifting Snow
4:00 AM 11 °F - 7 °F 74%  in 25 mi North 28.8 mph - - Snow Low Drifting Snow
4:55 AM 10.4 °F -11.7 °F 6.8 °F 85% 29.30 in 6.2 mi North 29.9 mph 51.8 mph N/A Snow Low Drifting Snow
5:55 AM 10.4 °F -11.4 °F 5.0 °F 79% 29.30 in 6.2 mi North 28.8 mph 46.0 mph N/A Snow Low Drifting Snow
6:55 AM 12.2 °F -9.6 °F 5.0 °F 73% 29.33 in 6.2 mi North 31.1 mph 43.7 mph N/A Snow Low Drifting Snow
7:00 AM 11 °F - 4 °F 64%  in 31 mi North 31.1 mph - - Snow Low Drifting Snow
7:55 AM 12.2 °F -9.9 °F 3.2 °F 67% 29.36 in 6.2 mi North 32.2 mph - N/A Snow Low Drifting Snow
8:55 AM 12.2 °F -9.9 °F 3.2 °F 67% 29.39 in 6.2 mi North 32.2 mph 46.0 mph N/A Snow Low Drifting Snow
9:55 AM 12.2 °F -9.9 °F 3.2 °F 67% 29.39 in 6.2 mi North 32.2 mph 44.9 mph N/A Snow Low Drifting Snow
10:00 AM 12 °F - 3 °F 56%  in 44 mi North 32.2 mph - - Snow Low Drifting Snow
10:55 AM 12.2 °F -11.0 °F 5.0 °F 73% 29.42 in 6.2 mi North 36.8 mph 52.9 mph N/A Snow Low Drifting Snow
11:55 AM 12.2 °F -9.9 °F 3.2 °F 67% 29.44 in 6.2 mi North 32.2 mph 48.3 mph N/A Snow Blowing Snow
12:55 PM 12.2 °F -9.9 °F 1.4 °F 62% 29.47 in 6.2 mi North 32.2 mph 56.4 mph N/A Snow Blowing Snow
1:00 PM 12 °F - 1 °F 47%  in 44 mi North 32.2 mph - - Snow Blowing Snow
1:55 PM 12.2 °F -10.8 °F -2.2 °F 53% 29.47 in 6.2 mi North 35.7 mph 54.1 mph N/A Snow Blowing Snow
2:55 PM 12.2 °F -10.2 °F -4.0 °F 48% 29.50 in 6.2 mi North 33.4 mph 51.8 mph N/A Snow Blowing Snow
3:55 PM 12.2 °F -10.8 °F -5.8 °F 45% 29.53 in 6.2 mi North 35.7 mph 54.1 mph N/A Snow Blowing Snow
4:00 PM 12 °F - -5 °F 30%  in 44 mi North 35.7 mph - - Snow Blowing Snow
4:55 PM 12.2 °F -10.2 °F -7.6 °F 41% 29.56 in 6.2 mi North 33.4 mph 51.8 mph N/A Snow Blowing Snow
5:55 PM 12.2 °F -11.0 °F -7.6 °F 41% 29.59 in 6.2 mi North 36.8 mph 51.8 mph N/A Snow Blowing Snow
6:55 PM 10.4 °F -9.9 °F -7.6 °F 44% 29.59 in 6.2 mi North 24.2 mph 48.3 mph N/A Snow Blowing Snow
7:00 PM 10 °F - -7 °F 31%  in 25 mi North 24.2 mph - - Snow Blowing Snow
7:55 PM 10.4 °F -13.0 °F -7.6 °F 44% 29.62 in 6.2 mi North 34.5 mph 49.5 mph N/A Snow Blowing Snow
8:55 PM 10.4 °F -12.7 °F -9.4 °F 41% 29.65 in 6.2 mi North 33.4 mph 47.2 mph N/A Snow Blowing Snow
9:55 PM 10.4 °F -12.0 °F -11.2 °F 37% 29.68 in 6.2 mi North 31.1 mph 51.8 mph N/A Snow Blowing Snow
10:00 PM 10 °F - -11 °F 22%  in 25 mi North 31.1 mph - - Snow Blowing Snow
10:55 PM 10.4 °F -13.0 °F -13.0 °F 34% 29.71 in 6.2 mi North 34.5 mph 52.9 mph N/A Snow Blowing Snow
11:55 PM 10.4 °F -12.0 °F -14.8 °F 31% 29.74 in 6.2 mi North 31.1 mph 46.0 mph N/A Snow Blowing Snow